This is the latest recevied weather packets stored in our database for station/object KE8WMS. If no packets are shown the sender has not sent any weather packets the latest 10 day(s).
| Time | Temp. | Humidity | Pressure | Rain* | Wind** | Luminosity | Snow |
|---|---|---|---|---|---|---|---|
| 1778114470 | 8.33° C | 76% | 1009.9 hPa | 0 mm | - | 1 W/m² | - |
| 1778114166 | 8.33° C | 75% | 1009.8 hPa | 0 mm | - | 1 W/m² | - |
| 1778113861 | 8.33° C | 74% | 1009.8 hPa | 0 mm | - | 2 W/m² | - |
| 1778113558 | 8.33° C | 76% | 1009.7 hPa | 0 mm | - | 3 W/m² | - |
| 1778113254 | 8.33° C | 78% | 1010 hPa | 0 mm | - | 4 W/m² | - |
| 1778112951 | 8.89° C | 75% | 1010 hPa | 0 mm | - | 5 W/m² | - |
| 1778112648 | 8.89° C | 72% | 1010 hPa | 0 mm | - | 6 W/m² | - |
| 1778112344 | 8.89° C | 71% | 1010.1 hPa | 0 mm | - | 8 W/m² | - |
| 1778112040 | 8.89° C | 73% | 1010 hPa | 0 mm | - | 11 W/m² | - |
| 1778111738 | 8.89° C | 72% | 1009.8 hPa | 0 mm | - | 14 W/m² | - |
| 1778111433 | 8.89° C | 70% | 1009.7 hPa | 0 mm | - | 18 W/m² | - |
| 1778111131 | 8.89° C | 69% | 1009.8 hPa | 0 mm | - | 21 W/m² | - |
| 1778110828 | 8.89° C | 69% | 1009.7 hPa | 0 mm | - | 27 W/m² | - |
| 1778110524 | 8.89° C | 70% | 1010 hPa | 0 mm | - | 30 W/m² | - |
| 1778110222 | 9.44° C | 69% | 1009.7 hPa | 0 mm | - | 39 W/m² | - |
| 1778109917 | 8.89° C | 69% | 1009.7 hPa | 0 mm | - | 45 W/m² | - |
| 1778109613 | 9.44° C | 71% | 1009.6 hPa | 0 mm | - | 38 W/m² | - |
| 1778109311 | 9.44° C | 72% | 1009.6 hPa | 0 mm | - | 43 W/m² | - |
| 1778109009 | 9.44° C | 69% | 1009.4 hPa | 0 mm | - | 48 W/m² | - |
| 1778108704 | 9.44° C | 70% | 1009.5 hPa | 0 mm | - | 57 W/m² | - |
| 1778108402 | 9.44° C | 69% | 1009.7 hPa | 0 mm | - | 53 W/m² | - |
| 1778108099 | 9.44° C | 69% | 1009.8 hPa | 0 mm | - | 53 W/m² | - |
| 1778107795 | 9.44° C | 70% | 1009.5 hPa | 0 mm | - | 56 W/m² | - |
| 1778107492 | 9.44° C | 70% | 1009.7 hPa | 0 mm | - | 63 W/m² | - |
| 1778107188 | 9.44° C | 69% | 1009.8 hPa | 0 mm | - | 64 W/m² | - |
* Rain latest hour (hover to see other rain measurements)
** Current wind speed in m/s (hover to see current wind gust speed)